Notices

What's New in latest Release from April 7th, 2021:

- Updated Glossary, including Speed of Maximum Gust, and Total Hourly Precipitation

- Updated national and regional climate services offices contacts and prices information

- Addition of station inventory lists for 1981-2010, 1971-2000, and 1961-1990 Normals.

Please note that as of June 10, 2021 UTC dates are available for all years 2004-present, and DBA is working on populating the remaining years (2003 to 1953).

If you haven't already, please take our survey and provide feedback about our website: https://eccc.sondage-survey.ca/f/LanguageSelection.aspx?s=442ca660-fcf1-47c0-95a9-59707d6fd709

Hourly Data Report for October 29, 2019

CARBERRY CS
MANITOBA
Current Station Operator: ECCC - MSC

49°54'20.900" N
99°21'26.800" W
383.50 m
5010547
71170
WZE

Download Data

Hourly Data (October 2019)
Hourly Data Report for October 29, 2019
TIME
LST
Temp Definition
°C
Dew Point Definition
°C
Rel Hum Definition
%
Precip. Amount Definition
mm

Wind Dir Definition
10's deg

Wind Spd Definition
km/h
Visibility Definition
km
Stn Press Definition
kPa
Hmdx Definition


Wind Chill Definition


Weather Definition


00:00 -6.7 -7.8 92 0.2 25 14   97.00   -12 LegendNANA
01:00 -6.2 -7.2 93 0.0 25 17   96.99   -12 LegendNANA
02:00 -6.0 -7.4 90 0.0 26 17   97.04   -12 LegendNANA
03:00 -6.2 -7.7 89 0.0 26 19   97.06   -13 LegendNANA
04:00 -6.8 -8.8 85 0.0 26 19   97.08   -14 LegendNANA
05:00 -6.2 -9.5 78 0.0 27 24   97.08   -14 LegendNANA
06:00 -8.8 -11.7 80 0.0 26 27   97.11   -18 LegendNANA
07:00 -9.3 -12.0 81 0.0 26 27   97.12   -18 LegendNANA
08:00 -8.5 -11.3 80 0.0 26 28   97.17   -17 LegendNANA
09:00 -7.7 -10.7 79 0.0 25 25   97.18   -16 LegendNANA
10:00 -7.0 -10.1 78 0.0 25 27   97.15   -15 LegendNANA
11:00 -6.1 -9.4 77 0.0 26 26   97.16   -14 LegendNANA
12:00 -6.0 -9.8 75 0.4 26 30   97.16   -14 LegendNANA
13:00 -5.8 -10.7 68 0.0 26 31   97.15   -14 LegendNANA
14:00 -6.0 -8.8 81 0.0 26 29   97.15   -14 LegendNANA
15:00 -5.8 -9.1 77 0.0 26 31   97.15   -14 LegendNANA
16:00 -6.0 -10.4 71 0.0 27 30   97.17   -14 LegendNANA
17:00 -6.6 -10.3 75 0.0 26 28   97.23   -15 LegendNANA
18:00 -7.3 -10.4 78 0.0 25 26   97.29   -15 LegendNANA
19:00 -7.6 -10.6 79 0.0 25 23   97.32   -15 LegendNANA
20:00 -7.4 -9.8 83 0.0 26 26   97.32   -16 LegendNANA
21:00 -7.6 -10.0 83 0.0 26 25   97.38   -16 LegendNANA
22:00 -8.3 -10.8 82 0.0 25 21   97.42   -16 LegendNANA
23:00 -7.5 -10.3 81 0.0 26 19   97.43   -15 LegendNANA

Notes on Data Quality.

Legend

  • E = Estimated
  • M = Missing
  • NA = Not Available*
  • [empty] = Indicates an unobserved value
Date modified: